Location: Freistadt
(48.5112°N, 14.5013°E)
Time: 16:54:06
(UTC+02:00)

EO-79 - Visible Passes

Search period start: 15 April 2024 00:00
Search period end: 25 April 2024 00:00
Orbit: 564 x 579 km, 98.0° (Epoch: 14 April)

Date Brightness Start Highest point End Pass type
(mag) Time Alt. Az. Time Alt. Az. Time Alt. Az.
15 Apr ? 02:49:11 10° E 02:49:42 10° E 02:50:12 10° E visible
15 Apr ? 04:21:18 10° NNE 04:25:24 85° WNW 04:27:46 25° SSW visible
16 Apr ? 02:51:05 10° ENE 02:52:08 11° E 02:53:12 10° ESE visible
16 Apr ? 04:23:43 10° NNE 04:27:49 81° WNW 04:30:19 23° SSW visible
17 Apr ? 02:53:10 10° ENE 02:54:34 11° E 02:55:57 10° ESE visible
17 Apr ? 04:26:06 10° N 04:30:12 77° WNW 04:32:51 21° SSW visible
18 Apr ? 02:55:18 10° ENE 02:56:58 12° E 02:58:36 10° ESE visible
18 Apr ? 04:28:29 10° N 04:32:34 73° WNW 04:35:22 20° SSW visible
19 Apr ? 02:57:29 10° ENE 02:59:21 13° E 03:01:11 10° ESE visible
19 Apr ? 04:30:50 10° N 04:34:56 69° WNW 04:37:52 18° SSW visible
20 Apr ? 02:59:38 10° ENE 03:01:42 13° E 03:03:44 10° ESE visible
20 Apr ? 04:33:10 10° N 04:37:15 66° WNW 04:40:20 17° SSW visible
21 Apr ? 03:01:49 10° ENE 03:04:02 14° E 03:06:14 10° ESE visible
21 Apr ? 04:35:29 10° N 04:39:34 62° WNW 04:42:48 15° SSW visible
22 Apr ? 03:03:59 10° NE 03:06:21 15° E 03:08:42 10° SE visible
22 Apr ? 04:37:47 10° N 04:41:50 59° WNW 04:45:14 14° SSW visible
23 Apr ? 03:06:09 10° NE 03:08:38 16° E 03:11:07 10° SE visible
23 Apr ? 04:40:04 10° N 04:44:06 56° WNW 04:47:38 13° SSW visible
24 Apr ? 03:08:17 10° NE 03:10:54 16° E 03:13:30 10° SE visible
24 Apr ? 04:42:19 10° N 04:46:20 53° WNW 04:50:01 12° SSW visible
